TimeCST,TemperatureF,Dew PointF,Humidity,Sea Level PressureIn,VisibilityMPH,Wind Direction,Wind SpeedMPH,Gust SpeedMPH,PrecipitationIn,Events,Conditions,WindDirDegrees,DateUTC
12:15 AM,28.4,14.0,55,30.19,10.0,ENE,6.9,-,N/A,,Overcast,70,2013-02-21 06:15:00
12:35 AM,28.4,14.0,55,30.19,10.0,NE,4.6,-,N/A,,Overcast,50,2013-02-21 06:35:00
12:55 AM,28.4,14.0,55,30.19,10.0,NE,5.8,-,N/A,,Overcast,50,2013-02-21 06:55:00
1:15 AM,28.4,14.0,55,30.20,10.0,East,8.1,-,N/A,,Overcast,80,2013-02-21 07:15:00
1:35 AM,28.4,14.0,55,30.18,10.0,ENE,9.2,17.3,N/A,,Overcast,70,2013-02-21 07:35:00
1:55 AM,28.4,14.0,55,30.17,10.0,ENE,9.2,16.1,N/A,,Overcast,70,2013-02-21 07:55:00
2:15 AM,28.4,14.0,55,30.16,10.0,ENE,6.9,-,N/A,,Overcast,70,2013-02-21 08:15:00
2:35 AM,28.4,14.0,55,30.13,10.0,East,9.2,17.3,N/A,,Overcast,80,2013-02-21 08:35:00
2:55 AM,28.4,12.2,51,30.13,10.0,East,10.4,16.1,N/A,,Overcast,80,2013-02-21 08:55:00
3:15 AM,28.4,14.0,55,30.09,10.0,East,12.7,-,N/A,,Overcast,80,2013-02-21 09:15:00
3:35 AM,28.4,14.0,55,30.09,10.0,East,16.1,20.7,N/A,,Overcast,80,2013-02-21 09:35:00
3:55 AM,28.4,14.0,55,30.10,10.0,ENE,6.9,-,N/A,,Overcast,70,2013-02-21 09:55:00
4:15 AM,28.4,14.0,55,30.09,10.0,East,13.8,19.6,N/A,,Overcast,80,2013-02-21 10:15:00
4:35 AM,28.4,14.0,55,30.07,10.0,ENE,10.4,19.6,N/A,,Overcast,70,2013-02-21 10:35:00
4:55 AM,28.4,14.0,55,30.07,10.0,East,13.8,23.0,N/A,,Overcast,80,2013-02-21 10:55:00
5:15 AM,28.4,14.0,55,30.05,10.0,ENE,13.8,20.7,N/A,,Overcast,70,2013-02-21 11:15:00
5:55 AM,28.4,14.0,55,30.06,10.0,ENE,13.8,19.6,N/A,,Overcast,70,2013-02-21 11:55:00
6:15 AM,26.6,14.0,59,30.07,7.0,ENE,15.0,-,N/A,Snow,Light Snow,70,2013-02-21 12:15:00
6:35 AM,26.6,17.6,69,30.04,5.0,ENE,12.7,23.0,0.01,Snow,Light Snow,70,2013-02-21 12:35:00
6:55 AM,26.6,19.4,74,30.03,4.0,ENE,9.2,19.6,0.03,Snow,Light Snow,70,2013-02-21 12:55:00
7:15 AM,26.6,21.2,80,30.06,7.0,ENE,13.8,19.6,N/A,Snow-Thunderstorm,Light Thunderstorms and Snow,60,2013-02-21 13:15:00
7:35 AM,24.8,21.2,86,30.02,3.0,ENE,12.7,19.6,0.04,Snow,Light Snow,70,2013-02-21 13:35:00
7:55 AM,26.6,23.0,86,29.97,5.0,ENE,13.8,19.6,0.08,Thunderstorm,Overcast,70,2013-02-21 13:55:00
8:15 AM,26.6,23.0,86,30.00,5.0,ENE,13.8,-,0.01,Snow-Thunderstorm,Light Thunderstorms and Snow,60,2013-02-21 14:15:00
8:35 AM,26.6,23.0,86,29.94,4.0,ENE,15.0,27.6,0.05,Thunderstorm,Thunderstorm,70,2013-02-21 14:35:00
9:15 AM,26.6,24.8,93,29.89,4.0,ENE,13.8,28.8,0.01,,Overcast,70,2013-02-21 15:15:00
9:35 AM,26.6,24.8,93,29.92,5.0,ENE,11.5,20.7,0.02,Snow,Light Snow,70,2013-02-21 15:35:00
9:55 AM,26.6,24.8,93,29.99,5.0,NE,3.5,-,0.03,Snow-Thunderstorm,Light Thunderstorms and Snow,40,2013-02-21 15:55:00
10:15 AM,26.6,24.8,93,30.01,3.0,NNW,3.5,-,N/A,Snow,Light Snow,340,2013-02-21 16:15:00
10:35 AM,26.6,24.8,93,29.96,1.2,NE,8.1,-,0.03,Snow-Thunderstorm,Light Thunderstorms and Snow,40,2013-02-21 16:35:00
10:55 AM,24.8,23.0,93,30.00,0.8,ENE,8.1,-,0.06,Snow-Thunderstorm,Light Thunderstorms and Snow,60,2013-02-21 16:55:00
11:15 AM,24.8,23.0,93,30.06,1.0,WSW,3.5,17.3,0.04,Snow,Light Snow,240,2013-02-21 17:15:00
11:35 AM,24.8,23.0,93,29.97,1.0,ENE,8.1,-,0.11,Snow,Light Snow,60,2013-02-21 17:35:00
11:55 AM,23.0,23.0,100,29.96,1.2,NE,9.2,-,0.16,Snow,Light Snow,50,2013-02-21 17:55:00
12:15 PM,24.8,23.0,93,29.91,2.0,ENE,11.5,20.7,0.02,Snow,Light Snow,70,2013-02-21 18:15:00
12:35 PM,26.6,23.0,86,29.91,2.0,East,10.4,20.7,0.02,Snow,Light Snow,80,2013-02-21 18:35:00
12:55 PM,26.6,23.0,86,29.89,2.0,East,12.7,20.7,0.02,Snow,Light Snow,80,2013-02-21 18:55:00
1:15 PM,26.6,24.8,93,29.86,1.5,East,15.0,21.9,N/A,Snow,Light Snow,80,2013-02-21 19:15:00
1:35 PM,26.6,24.8,93,29.84,3.0,East,16.1,23.0,N/A,Snow,Light Snow,80,2013-02-21 19:35:00
1:55 PM,26.6,24.8,93,29.84,5.0,East,17.3,24.2,N/A,,Overcast,80,2013-02-21 19:55:00
2:15 PM,26.6,26.6,100,29.83,7.0,East,16.1,25.3,N/A,,Overcast,80,2013-02-21 20:15:00
2:35 PM,28.4,24.8,86,29.81,10.0,East,13.8,21.9,N/A,,Overcast,80,2013-02-21 20:35:00
2:55 PM,28.4,26.6,93,29.82,7.0,East,13.8,23.0,N/A,,Overcast,80,2013-02-21 20:55:00
3:15 PM,28.4,26.6,93,29.78,7.0,ENE,10.4,17.3,N/A,,Overcast,70,2013-02-21 21:15:00
3:35 PM,28.4,26.6,93,29.79,7.0,ENE,8.1,-,N/A,Snow,Light Snow,70,2013-02-21 21:35:00
3:55 PM,28.4,26.6,93,29.77,4.0,East,11.5,-,N/A,,Overcast,80,2013-02-21 21:55:00
4:15 PM,28.4,28.4,100,29.77,4.0,East,10.4,-,N/A,,Overcast,80,2013-02-21 22:15:00
4:35 PM,28.4,28.4,100,29.76,3.0,East,9.2,-,N/A,,Overcast,80,2013-02-21 22:35:00
4:55 PM,28.4,28.4,100,29.76,3.0,East,8.1,-,N/A,,Overcast,80,2013-02-21 22:55:00
5:15 PM,30.2,28.4,93,29.76,3.0,East,8.1,-,N/A,,Overcast,80,2013-02-21 23:15:00
5:35 PM,30.2,30.2,100,29.77,2.5,East,6.9,-,N/A,,Overcast,80,2013-02-21 23:35:00
5:55 PM,30.2,30.2,100,29.75,2.5,East,6.9,-,N/A,,Overcast,80,2013-02-21 23:55:00
6:15 PM,30.2,30.2,100,29.77,2.5,East,3.5,-,N/A,,Overcast,90,2013-02-22 00:15:00
6:35 PM,30.2,30.2,100,29.78,2.0,East,3.5,-,N/A,,Overcast,90,2013-02-22 00:35:00
6:55 PM,30.2,30.2,100,29.77,2.0,East,4.6,-,N/A,,Overcast,90,2013-02-22 00:55:00
7:15 PM,30.2,30.2,100,29.77,2.5,East,3.5,-,N/A,,Overcast,100,2013-02-22 01:15:00
7:35 PM,32.0,32.0,100,29.77,4.0,ESE,5.8,-,N/A,,Overcast,120,2013-02-22 01:35:00
7:55 PM,32.0,32.0,100,29.76,10.0,SE,9.2,-,N/A,,Overcast,130,2013-02-22 01:55:00
8:15 PM,32.0,32.0,100,29.76,10.0,SE,10.4,-,N/A,,Overcast,130,2013-02-22 02:15:00
8:35 PM,32.0,32.0,100,29.76,10.0,SE,9.2,-,N/A,,Overcast,140,2013-02-22 02:35:00
8:55 PM,32.0,32.0,100,29.76,10.0,SE,9.2,-,N/A,,Overcast,140,2013-02-22 02:55:00
9:15 PM,32.0,32.0,100,29.76,10.0,SE,10.4,-,N/A,,Overcast,140,2013-02-22 03:15:00
9:35 PM,32.0,32.0,100,29.77,10.0,SSE,8.1,-,N/A,,Overcast,150,2013-02-22 03:35:00
9:55 PM,32.0,32.0,100,29.77,10.0,SSE,6.9,-,N/A,,Overcast,150,2013-02-22 03:55:00
10:15 PM,32.0,32.0,100,29.77,10.0,SSE,8.1,-,N/A,,Overcast,160,2013-02-22 04:15:00
10:35 PM,32.0,32.0,100,29.77,7.0,SSE,8.1,-,N/A,Snow,Light Snow,160,2013-02-22 04:35:00
10:55 PM,32.0,32.0,100,29.77,10.0,South,6.9,-,N/A,,Overcast,170,2013-02-22 04:55:00
11:15 PM,32.0,32.0,100,29.77,10.0,South,5.8,-,N/A,,Overcast,170,2013-02-22 05:15:00
11:35 PM,32.0,32.0,100,29.78,10.0,South,5.8,-,N/A,,Overcast,180,2013-02-22 05:35:00
11:55 PM,32.0,32.0,100,29.78,7.0,South,6.9,-,N/A,Snow,Light Snow,180,2013-02-22 05:55:00